This is the latest recevied weather packets stored in our database for station/object OE5RBO. If no packets are shown the sender has not sent any weather packets the latest 10 day(s).
| Time | Temp. | Humidity | Pressure | Rain* | Wind** | Luminosity | Snow |
|---|---|---|---|---|---|---|---|
| 1788211959 | 19.44° C | 79% | 1020 hPa | 1.52 mm | - | - | - |
| 1788211359 | 19.44° C | 79% | 1019.9 hPa | 1.52 mm | - | - | - |
| 1788210759 | 19.44° C | 79% | 1019.9 hPa | 1.52 mm | - | - | - |
| 1788210158 | 19.44° C | 78% | 1019.8 hPa | 1.52 mm | - | - | - |
| 1788208958 | 20° C | 75% | 1019.5 hPa | 1.52 mm | - | - | - |
| 1788208357 | 20.56° C | 73% | 1019.5 hPa | 1.52 mm | - | - | - |
| 1788207757 | 20.56° C | 72% | 1019.5 hPa | 1.52 mm | - | - | - |
| 1788207156 | 20.56° C | 72% | 1019.4 hPa | 1.52 mm | - | - | - |
| 1788205956 | 20.56° C | 72% | 1019.4 hPa | 1.52 mm | - | - | - |
| 1788205356 | 20.56° C | 72% | 1019.4 hPa | 1.52 mm | - | - | - |
| 1788203553 | 21.11° C | 73% | 1018.9 hPa | 1.52 mm | - | - | - |
| 1788202953 | 21.11° C | 72% | 1018.7 hPa | 1.52 mm | - | - | - |
| 1788202353 | 21.11° C | 71% | 1018.6 hPa | 1.52 mm | - | - | - |
| 1788201753 | 21.11° C | 70% | 1018.5 hPa | 1.52 mm | - | - | - |
| 1788201152 | 21.11° C | 71% | 1018.4 hPa | 1.52 mm | - | - | - |
| 1788200552 | 21.67° C | 70% | 1018.3 hPa | 1.52 mm | - | - | - |
| 1788199951 | 21.67° C | 71% | 1017.9 hPa | 1.52 mm | - | - | - |
| 1788199351 | 21.67° C | 71% | 1017.7 hPa | 1.52 mm | - | - | - |
| 1788198751 | 21.67° C | 74% | 1017.5 hPa | 1.52 mm | - | - | - |
| 1788198150 | 22.78° C | 70% | 1017.4 hPa | 1.52 mm | - | - | - |
| 1788197550 | 22.78° C | 69% | 1017.4 hPa | 1.52 mm | - | - | - |
| 1788196950 | 23.33° C | 69% | 1017.3 hPa | 1.52 mm | - | - | - |
| 1788195749 | 23.33° C | 67% | 1017.3 hPa | 1.52 mm | - | - | - |
| 1788195148 | 23.89° C | 67% | 1017.2 hPa | 1.52 mm | - | - | - |
| 1788194548 | 23.89° C | 66% | 1017 hPa | 1.52 mm | - | - | - |
* Rain since midnight (hover to see other rain measurements)
** Current wind speed in m/s (hover to see current wind gust speed)